Back to catalog

STARLINK-35233

AliveCommunicationsVLEO
NORAD 65678·PAYLOAD·🇺🇸 United States

Launched Sep 21, 2025 from Cape Canaveral Space Force Station

Loading…

Next Passes (next 24 hours)

TLE

FreshSource: CelesTrak SupGP

Epoch: Sep 14, 2026, 23:09 UTC

1 65678C 25212C   26257.96506944 -.00039348  00000+0 -12649-2 0  2578
2 65678  53.1576 185.8551 0001412 102.8315 189.7383 15.31733118    15

Track STARLINK-35233 in real time with AllMySat

Download on the App Store